Location: Unspecified
(40.9799°N, 76.1133°W)
Time: 01:44:18
(UTC-04:00)

N. Korean satellite - Visible Passes

Search period start: 25 September 2022 00:00
Search period end: 05 October 2022 00:00
Orbit: 428 x 468 km, 97.3° (Epoch: 24 September)

Date Brightness Start Highest point End Pass type
(mag) Time Alt. Az. Time Alt. Az. Time Alt. Az.
25 Sep 7.6 06:03:03 10° NNE 06:06:13 44° E 06:09:21 10° S visible
26 Sep 9.6 05:28:32 10° ENE 05:30:27 15° E 05:32:21 10° SE visible
27 Sep 6.3 06:24:24 10° N 06:27:42 85° WNW 06:30:57 10° SSW visible
28 Sep 8.6 05:49:07 10° NE 05:51:58 27° E 05:54:49 10° SSE visible
30 Sep 7.1 06:10:04 10° NNE 06:13:18 57° E 06:16:30 10° S visible
01 Oct 9.4 05:35:05 10° NE 05:37:24 18° E 05:39:42 10° SE visible
02 Oct 6.3 06:31:09 10° N 06:34:25 67° WNW 06:37:39 10° SSW visible
03 Oct 8.2 05:55:33 10° NNE 05:58:34 34° E 06:01:34 10° SSE visible
04 Oct 9.9 05:21:20 10° ENE 05:22:30 11° E 05:23:39 10° ESE visible
